Regional Weather Roundup
Issued by NWS

Home | Current Version | Previous Version | Graphics & Text | Print | Product List | Glossary On
Versions: 1 2 3 4 5 6 7 8 9 10 11 12 13 14 15 16 17 18 19 20 21 22 23 24 25 26 27 28 29 30 31 32 33 34 35 36 37 38 39 40 41 42 43 44 45 46 47 48 49 50
000
ASUS44 KMEG 191310
RWRTN
TENNESSEE HOURLY STATE WEATHER ROUNDUP
NATIONAL WEATHER SERVICE MEMPHIS TN
700 AM CST FRI JAN 19 2018

TNZ002-004-019-021-049-052-054-088>092-191400-
WEST TENNESSEE

CITY           SKY/WX    TMP DP  RH WIND       PRES   REMARKS
MEMPHIS INTL   FAIR      25  17  72 S6        30.30S WCI  18
NWS MEMPHIS      N/A     25 N/A N/A MISG        N/A
JACKSON        FAIR      22  13  68 S6        30.29S WCI  14
DYERSBURG      FAIR      22  16  78 S6        30.28S WCI  14
SOMERVILLE     CLEAR     25  16  68 S6        30.28S WCI  18
COVINGTON      CLEAR     23  16  74 S6        30.29S WCI  16
UNION CITY     CLEAR     18  12  79 S6        30.27S WCI   9
BOLIVAR        CLEAR     19  14  79 S5        30.30S WCI  13
PARIS          CLEAR     18  10  73 S9        30.26S WCI   6
HUNTINGDON     CLEAR     14   9  79 CALM      30.27S
LEXINGTON      CLEAR     16  12  86 CALM      30.31S
SELMER         CLEAR     19  14  79 SW5       30.30S WCI  13
SAVANNAH       CLEAR     21  16  79 S5        30.32S WCI  15
$$

TNZ008-025-027-028-033-062-065-066-191400-
NORTH MIDDLE TENNESSEE

CITY           SKY/WX    TMP DP  RH WIND       PRES   REMARKS
NASHVILLE      FAIR      19  12  74 S5        30.32S WCI  12
PORTLAND       CLEAR     19  14  79 S10       30.28S WCI   8
CLARKSVILLE    FAIR      18   9  68 S6        30.28F WCI  10
SMYRNA         FAIR      12  10  92 CALM      30.35S
COOKEVILLE     CLEAR     10   9  92 CALM      30.32R
GALLATIN       CLEAR     12  10  92 CALM      30.35S
CROSSVILLE     FAIR      13   7  77 S3        30.28R
$$

TNZ061-075-076-078-094-096-097-191400-
SOUTH MIDDLE TENNESSEE

CITY           SKY/WX    TMP DP  RH WIND       PRES   REMARKS
FAYETTEVILLE   CLEAR     19  14  79 CALM      30.32R
TULLAHOMA      CLEAR     12  10  92 CALM      30.31S
WINCHESTER     CLEAR     14  10  85 CALM      30.33S
MCMINNVILLE    CLEAR     12   9  85 CALM      30.32F
COLUMBIA       CLEAR     18  14  86 CALM      30.31R
SHELBYVILLE    CLEAR     14  10  85 E5        30.33R WCI   6
$$

TNZ017-018-042-046-047-191400-
NORTHEAST TENNESSEE

CITY           SKY/WX    TMP DP  RH WIND       PRES   REMARKS
TRI CITIES     FAIR      11   8  88 CALM      30.31R
ELIZABETHTON   FAIR      14   9  79 CALM      30.31R
$$

TNZ012-013-036-069-073-074-191400-
CENTRAL EAST TENNESSEE

CITY           SKY/WX    TMP DP  RH WIND       PRES   REMARKS
KNOXVILLE      FAIR      14  11  87 CALM      30.35R
OAK RIDGE      FAIR      13  10  88 CALM      30.36R
DOWNTOWN KNOXV CLEAR     16  14  93 CALM      30.37R FOG
GATLINBURG     CLEAR     10   9  92 CALM      30.36R
MORRISTOWN     CLEAR     14  12  92 CALM      30.31S
JACKSBORO      CLEAR     10   9  92 CALM      30.37R
$$

TNZ083-085-099-191400-
SOUTHEAST TENNESSEE

CITY           SKY/WX    TMP DP  RH WIND       PRES   REMARKS
CHATTANOOGA    FAIR      17  13  84 CALM      30.36R
DAYTON         SUNNY     12  12 100 CALM      30.36R
$$

SKY/WX REPORTED AS FAIR MEANS FEW OR NO CLOUDS BELOW
12 THOUSAND FEET.




USA.gov is the U.S. government's official web portal to all federal, state and local government web resources and services.